This is the latest recevied weather packets stored in our database for station/object W0VI. If no packets are shown the sender has not sent any weather packets the latest 10 day(s).
| Time | Temp. | Humidity | Pressure | Rain* | Wind** | Luminosity | Snow |
|---|---|---|---|---|---|---|---|
| 1777993167 | 6.67° C | 47% | 1010.9 hPa | 0 mm | - | 555 W/m² | - |
| 1777992866 | 7.22° C | 46% | 1010.8 hPa | 0 mm | - | 524 W/m² | - |
| 1777992563 | 7.22° C | 48% | 1010.8 hPa | 0 mm | - | 529 W/m² | - |
| 1777992261 | 6.67° C | 47% | 1010.9 hPa | 0 mm | - | 495 W/m² | - |
| 1777991958 | 6.11° C | 48% | 1010.9 hPa | 0 mm | - | 503 W/m² | - |
| 1777991656 | 6.67° C | 49% | 1010.9 hPa | 0 mm | - | 510 W/m² | - |
| 1777991353 | 5.56° C | 49% | 1010.8 hPa | 0 mm | - | 495 W/m² | - |
| 1777991050 | 5.56° C | 48% | 1010.8 hPa | 0 mm | - | 470 W/m² | - |
| 1777990747 | 5.56° C | 49% | 1010.8 hPa | 0 mm | - | 419 W/m² | - |
| 1777990445 | 5.56° C | 48% | 1011 hPa | 0 mm | - | 389 W/m² | - |
| 1777989838 | 5.56° C | 48% | 1010.6 hPa | 0 mm | - | 363 W/m² | - |
| 1777989535 | 5° C | 49% | 1010.7 hPa | 0 mm | - | 343 W/m² | - |
| 1777989231 | 5.56° C | 48% | 1010.5 hPa | 0 mm | - | 347 W/m² | - |
| 1777988927 | 5.56° C | 48% | 1010.5 hPa | 0 mm | - | 327 W/m² | - |
| 1777988624 | 5.56° C | 49% | 1010.6 hPa | 0 mm | - | 313 W/m² | - |
| 1777988321 | 5° C | 49% | 1010.3 hPa | 0 mm | - | 311 W/m² | - |
| 1777988018 | 5° C | 48% | 1010.5 hPa | 0 mm | - | 274 W/m² | - |
| 1777987713 | 5° C | 49% | 1010.4 hPa | 0 mm | - | 262 W/m² | - |
| 1777987411 | 5° C | 50% | 1010.5 hPa | 0 mm | - | 252 W/m² | - |
| 1777987108 | 4.44° C | 50% | 1010.3 hPa | 0 mm | - | 236 W/m² | - |
| 1777986805 | 4.44° C | 51% | 1010.3 hPa | 0 mm | - | 225 W/m² | - |
| 1777986503 | 4.44° C | 51% | 1010.1 hPa | 0 mm | - | 213 W/m² | - |
| 1777986201 | 3.89° C | 52% | 1010.1 hPa | 0 mm | - | 198 W/m² | - |
| 1777985898 | 3.89° C | 52% | 1010.2 hPa | 0 mm | - | 191 W/m² | - |
| 1777985595 | 3.89° C | 53% | 1010 hPa | 0 mm | - | 107 W/m² | - |
* Rain latest hour (hover to see other rain measurements)
** Current wind speed in m/s (hover to see current wind gust speed)